Location: Isola Pescaroli
(45.0500°N, 10.1667°E)
Time: 04:06:47
(UTC+00:00)

Cosmos 1844 - Visible Passes

Search period start: 14 June 2021 00:00
Search period end: 24 June 2021 00:00
Orbit: 824 x 866 km, 70.9° (Epoch: 13 June)

Date Brightness Start Highest point End Pass type
(mag) Time Alt. Az. Time Alt. Az. Time Alt. Az.
14 Jun 5.4 20:06:17 10° N 20:10:32 22° NE 20:14:46 10° E visible
14 Jun 3.7 21:49:41 10° NNW 21:55:14 71° WSW 21:57:38 35° S visible
15 Jun 5.4 19:52:19 10° N 19:56:31 21° NE 20:00:41 10° E visible
15 Jun 3.7 21:35:41 10° NNW 21:41:15 74° WSW 21:43:57 31° S visible
16 Jun 3.7 21:21:40 10° NNW 21:27:15 76° WSW 21:30:18 28° SSE visible
16 Jun 6.0 23:09:30 10° W 23:10:22 10° W 23:11:14 10° WSW visible
17 Jun 3.7 21:07:40 10° NNW 21:13:15 78° WSW 21:16:41 24° SSE visible
17 Jun 6.0 22:55:06 10° W 22:56:24 11° W 22:57:43 10° WSW visible
18 Jun 3.7 20:53:40 10° NNW 20:59:16 81° WSW 21:03:06 21° SSE visible
18 Jun 6.0 22:40:48 10° WNW 22:42:27 11° W 22:44:05 10° WSW visible
19 Jun 3.7 20:39:40 10° NNW 20:45:16 83° WSW 20:49:33 18° SSE visible
19 Jun 6.0 22:26:34 10° WNW 22:28:28 12° W 22:30:22 10° WSW visible
20 Jun 3.7 20:25:41 10° NNW 20:31:17 85° WSW 20:36:02 15° SSE visible
20 Jun 6.0 22:12:22 10° WNW 22:14:30 12° W 22:16:38 10° WSW visible
21 Jun 3.7 20:11:41 10° NNW 20:17:17 88° WSW 20:22:34 12° SSE visible
21 Jun 6.0 21:58:12 10° WNW 22:00:32 13° W 22:02:52 10° WSW visible
22 Jun 3.7 19:57:41 10° NNW 20:03:17 90° W 20:08:54 10° SSE visible
22 Jun 6.0 21:44:03 10° WNW 21:46:34 13° W 21:49:06 10° SW visible
23 Jun 3.7 19:43:41 10° NNW 19:49:18 88° ENE 19:54:55 10° SSE visible
23 Jun 6.0 21:29:55 10° WNW 21:32:36 14° W 21:35:18 10° SW visible
